{"data":{"norad_id":61004,"epoch":"2026-09-21T22:32:34.363968Z","epoch_age_seconds":67687,"freshness":"FRESH","line1":"1 61004U 24158Q   26264.93928662 -.00000139  00000+0  70380-5 0  9992","line2":"2 61004  53.1609 230.7354 0001670  84.1914 275.9279 15.34389041115749","mean_motion":15.34389041,"eccentricity":0.000167,"inclination_deg":53.1609,"raan_deg":230.7354,"arg_perigee_deg":84.1914,"mean_anomaly_deg":275.9279,"bstar":7.038e-6,"rev_number":11574,"period_min":93.848428366089,"perigee_km":461.59338709873,"apogee_km":463.87823861822,"semimajor_km":6840.8728128585,"source":"CELESTRAK","updated_at":"2026-09-22T09:00:49.297401Z"}}